| time (UTC) | temp F | wind direction | speed MPH | gust MPH | rain 1hr in | rain 24hr in | rain mn in | humidity % | barometer mb |
| 20260506134538 | 83 | 213 | 6.0 | 10.0 | 0.00 | 0.00 | 0.00 | 87 | 1007.1 |
| 20260506133040 | 83 | 211 | 4.0 | 11.0 | 0.00 | 0.00 | 0.00 | 88 | 1006.9 |
| 20260506131536 | 82 | 189 | 3.0 | 16.0 | 0.00 | 0.00 | 0.00 | 87 | 1007.0 |
| 20260506130033 | 82 | 161 | 7.0 | 12.0 | 0.00 | 0.00 | 0.00 | 87 | 1007.2 |
| 20260506124531 | 82 | 203 | 3.0 | 11.0 | 0.00 | 0.00 | 0.00 | 86 | 1007.2 |
| 20260506123028 | 82 | 185 | 6.0 | 17.0 | 0.00 | 0.00 | 0.00 | 87 | 1007.3 |
| 20260506121527 | 82 | 132 | 5.0 | 16.0 | 0.00 | 0.00 | 0.00 | 88 | 1007.3 |
| 20260506120025 | 82 | 124 | 6.0 | 13.0 | 0.00 | 0.00 | 0.00 | 88 | 1007.6 |
| 20260506114532 | 82 | 173 | 6.0 | 14.0 | 0.00 | 0.00 | 0.00 | 90 | 1007.7 |
| 20260506113020 | 82 | 205 | 6.0 | 11.0 | 0.00 | 0.00 | 0.00 | 88 | 1007.8 |
| 20260506111515 | 82 | 207 | 5.0 | 11.0 | 0.00 | 0.00 | 0.00 | 91 | 1008.0 |
| 20260506110012 | 81 | 217 | 6.0 | 12.0 | 0.00 | 0.00 | 0.00 | 89 | 1008.1 |
| 20260506104509 | 81 | 225 | 5.0 | 12.0 | 0.00 | 0.00 | 0.00 | 92 | 1008.3 |
| 20260506103013 | 80 | 206 | 4.0 | 9.0 | 0.00 | 0.00 | 0.00 | 93 | 1008.5 |
| 20260506101503 | 80 | 228 | 5.0 | 10.0 | 0.00 | 0.00 | 0.00 | 94 | 1008.5 |
| 20260506100101 | 80 | 203 | 4.0 | 10.0 | 0.00 | 0.00 | 0.00 | 92 | 1008.5 |
| 20260506094600 | 79 | 225 | 4.0 | 8.0 | 0.00 | 0.00 | 0.00 | 93 | 1008.6 |
| 20260506093102 | 78 | 94 | 5.0 | 11.0 | 0.00 | 0.00 | 0.00 | 94 | 1008.7 |
| 20260506091553 | 78 | 188 | 3.0 | 9.0 | 0.00 | 0.00 | 0.00 | 96 | 1008.9 |
| 20260506090049 | 77 | 134 | 3.0 | 9.0 | 0.00 | 0.00 | 0.00 | 98 | 1008.9 |
| 20260506084549 | 76 | 203 | 1.0 | 8.0 | 0.00 | 0.00 | 0.00 | 100 | 1008.9 |
| 20260506083042 | 75 | 216 | 2.0 | 8.0 | 0.00 | 0.00 | 0.00 | 100 | 1009.0 |
| 20260506081537 | 74 | 196 | 2.0 | 6.0 | 0.00 | 0.00 | 0.00 | 100 | 1009.1 |
| 20260506073023 | 70 | 139 | 3.0 | 7.0 | 0.00 | 0.00 | 0.00 | 100 | 1009.3 |
| 20260506071520 | 69 | 193 | 2.0 | 7.0 | 0.00 | 0.00 | 0.00 | 100 | 1009.4 |
| 20260506061501 | 64 | 154 | 4.0 | 9.0 | 0.00 | 0.00 | 0.00 | 100 | 1009.3 |
| 20260506044534 | 56 | 137 | 2.0 | 7.0 | 0.00 | 0.00 | 0.00 | 100 | 1009.5 |
| 20260506043028 | 53 | 196 | 0.0 | 3.0 | 0.00 | 0.00 | 0.00 | 100 | 1009.6 |
| 20260506041530 | 48 | 360 | 0.0 | 1.0 | 0.00 | 0.00 | 0.00 | 100 | 1009.4 |
| 20260506040019 | 45 | 360 | 0.0 | 0.0 | 0.00 | 0.00 | 0.00 | 100 | 1009.2 |
| 20260506034515 | 43 | 360 | 0.0 | 0.0 | 0.00 | 0.00 | 0.00 | 100 | 1009.1 |
| 20260506033010 | 42 | 360 | 0.0 | 0.0 | 0.00 | 0.00 | 0.00 | 100 | 1009.1 |
| 20260506031512 | 42 | 360 | 0.0 | 0.0 | 0.00 | 0.00 | 0.00 | 100 | 1009.2 |
| 20260506030008 | 42 | 360 | 0.0 | 0.0 | 0.00 | 0.00 | 0.00 | 100 | 1009.1 |
| 20260506024502 | 43 | 360 | 0.0 | 0.0 | 0.00 | 0.00 | 0.00 | 100 | 1009.0 |
| 20260506023101 | 43 | 360 | 0.0 | 0.0 | 0.00 | 0.00 | 0.00 | 100 | 1009.0 |
| 20260506021558 | 43 | 360 | 0.0 | 2.0 | 0.00 | 0.00 | 0.00 | 100 | 1009.0 |
| 20260506020055 | 44 | 360 | 0.0 | 0.0 | 0.00 | 0.00 | 0.00 | 100 | 1009.0 |
| 20260506014556 | 45 | 360 | 0.0 | 0.0 | 0.00 | 0.00 | 0.00 | 100 | 1009.0 |
| 20260506013050 | 45 | 360 | 0.0 | 0.0 | 0.00 | 0.00 | 0.00 | 100 | 1009.0 |
| 20260506011550 | 45 | 360 | 0.0 | 0.0 | 0.00 | 0.00 | 0.00 | 100 | 1008.9 |
| 20260506010050 | 45 | 360 | 0.0 | 0.0 | 0.00 | 0.00 | 0.00 | 100 | 1008.9 |
| 20260506004550 | 45 | 360 | 0.0 | 0.0 | 0.00 | 0.00 | 0.00 | 100 | 1008.9 |
| 20260506003048 | 45 | 360 | 0.0 | 0.0 | 0.00 | 0.00 | 0.00 | 100 | 1008.8 |
| 20260506001606 | 46 | 360 | 0.0 | 0.0 | 0.00 | 0.00 | 0.00 | 100 | 1008.7 |
| 20260506000048 | 46 | 360 | 0.0 | 0.0 | 0.00 | 0.00 | 0.00 | 100 | 1008.7 |
| 20260505234547 | 48 | 360 | 0.0 | 2.0 | 0.00 | 0.00 | 0.00 | 100 | 1008.8 |
| 20260505233037 | 49 | 360 | 0.0 | 0.0 | 0.00 | 0.00 | 0.00 | 100 | 1008.7 |
| 20260505231544 | 49 | 360 | 0.0 | 1.0 | 0.00 | 0.00 | 0.00 | 100 | 1008.7 |
| 20260505230038 | 49 | 360 | 0.0 | 1.0 | 0.00 | 0.00 | 0.00 | 100 | 1008.8 |
| 20260505224538 | 49 | 360 | 0.0 | 1.0 | 0.00 | 0.00 | 0.00 | 100 | 1008.8 |
| 20260505223040 | 50 | 360 | 0.0 | 0.0 | 0.00 | 0.00 | 0.00 | 100 | 1008.9 |
| 20260505221529 | 50 | 360 | 0.0 | 1.0 | 0.00 | 0.00 | 0.00 | 100 | 1008.9 |
| 20260505220036 | 51 | 360 | 0.0 | 0.0 | 0.00 | 0.00 | 0.00 | 100 | 1008.8 |
| 20260505214546 | 50 | 360 | 2.0 | 6.0 | 0.00 | 0.00 | 0.00 | 100 | 1009.0 |
| 20260505213038 | 52 | 360 | 0.0 | 0.0 | 0.00 | 0.00 | 0.00 | 100 | 1008.6 |
| 20260505211519 | 53 | 360 | 0.0 | 0.0 | 0.00 | 0.00 | 0.00 | 100 | 1008.6 |
| 20260505210016 | 55 | 360 | 0.0 | 0.0 | 0.00 | 0.00 | 0.00 | 100 | 1008.6 |
| 20260505204524 | 56 | 360 | 0.0 | 0.0 | 0.00 | 0.00 | 0.00 | 100 | 1008.5 |
| 20260505203015 | 56 | 360 | 0.0 | 0.0 | 0.00 | 0.00 | 0.00 | 100 | 1008.5 |
| 20260505201517 | 57 | 360 | 0.0 | 0.0 | 0.00 | 0.00 | 0.00 | 100 | 1008.4 |
| 20260505200012 | 58 | 360 | 0.0 | 0.0 | 0.00 | 0.00 | 0.00 | 100 | 1008.3 |
| 20260505194512 | 60 | 360 | 0.0 | 0.0 | 0.00 | 0.00 | 0.00 | 100 | 1008.3 |
| 20260505193033 | 61 | 360 | 0.0 | 0.0 | 0.00 | 0.00 | 0.00 | 100 | 1008.1 |
| 20260505191512 | 62 | 360 | 0.0 | 1.0 | 0.00 | 0.00 | 0.00 | 100 | 1008.1 |
| 20260505190026 | 63 | 360 | 0.0 | 1.0 | 0.00 | 0.00 | 0.00 | 99 | 1008.0 |
| 20260505184510 | 64 | 360 | 0.0 | 0.0 | 0.00 | 0.00 | 0.00 | 97 | 1007.9 |
| 20260505183016 | 65 | 360 | 0.0 | 0.0 | 0.00 | 0.00 | 0.00 | 96 | 1007.9 |
| 20260505181515 | 66 | 360 | 0.0 | 0.0 | 0.00 | 0.00 | 0.00 | 94 | 1007.7 |
| 20260505180015 | 68 | 360 | 0.0 | 1.0 | 0.00 | 0.00 | 0.00 | 93 | 1007.6 |
| 20260505174508 | 70 | 360 | 0.0 | 0.0 | 0.00 | 0.00 | 0.00 | 92 | 1007.5 |
| 20260505173009 | 72 | 360 | 0.0 | 1.0 | 0.00 | 0.00 | 0.00 | 89 | 1007.4 |
| 20260505171609 | 75 | 188 | 0.0 | 1.0 | 0.00 | 0.00 | 0.00 | 87 | 1007.3 |
| 20260505170011 | 77 | 188 | 0.0 | 1.0 | 0.00 | 0.00 | 0.00 | 85 | 1007.3 |
| 20260505164505 | 78 | 188 | 0.0 | 1.0 | 0.00 | 0.00 | 0.00 | 84 | 1007.4 |
| 20260505163006 | 78 | 177 | 0.0 | 3.0 | 0.00 | 0.00 | 0.00 | 84 | 1007.4 |
| 20260505161505 | 79 | 173 | 0.0 | 2.0 | 0.00 | 0.00 | 0.00 | 84 | 1007.5 |
| 20260505153002 | 80 | 201 | 5.0 | 7.0 | 0.00 | 0.00 | 0.00 | 85 | 1007.4 |
| 20260505151600 | 80 | 167 | 0.0 | 4.0 | 0.00 | 0.00 | 0.00 | 83 | 1007.6 |
| 20260505150116 | 80 | 226 | 2.0 | 6.0 | 0.00 | 0.00 | 0.00 | 84 | 1007.7 |
| 20260505140107 | 82 | 184 | 2.0 | 6.0 | 0.00 | 0.00 | 0.00 | 84 | 1008.1 |